Location: Newark
(33.6333°S, 78.8500°W)
Time: 19:49:31
(UTC+00:00)

Tiros 1 despin weight - Pass Details

Date: 20 September 2019
Orbit: 593 x 643 km, 48.2° (Epoch: 21 October)

Event Time Altitude Azimuth Distance (km) Brightness Sun altitude
Rises 11:46:09 0° 231° (SW) 2,961 ? 7.1°
Reaches altitude 10° 11:48:30 10° 229° (SW) 2,051 ? 7.6°
Maximum altitude 11:53:15 78° 142° (SE) 665 ? 8.6°
Drops below altitude 10° 11:57:58 10° 55° (NE) 2,035 ? 9.6°
Sets 12:00:17 0° 54° (NE) 2,936 ? 10.0°
